Regional Weather Roundup
Issued by NWS

Home | Current Version | Previous Version | Graphics & Text | Print | Product List | Glossary On
Versions: 1 2 3 4 5 6 7 8 9 10 11 12 13 14 15 16 17 18 19 20 21 22 23 24 25 26 27 28 29 30 31 32 33 34 35 36 37 38 39 40 41 42 43 44 45 46 47 48 49 50
000
ASUS43 KOAX 031002
RWRNE

WEATHER ROUNDUP FOR NEBRASKA
NATIONAL WEATHER SERVICE OMAHA NE
500 AM CDT TUE MAY 03 2016

NOTES: SATELLITE DATA IS BEING USED TO AUGMENT CLOUD COVER ABOVE
       12000 FEET.
       "FAIR" INDICATES FEW OR NO CLOUDS BELOW 12,000 FEET WITH NO
       SIGNIFICANT WEATHER AND/OR OBSTRUCTIONS TO VISIBILITY.

  * THESE STATIONS DO NOT REPORT WEATHER SUCH AS RAIN...SNOW OR FOG.

NEZ001>004-019>022-054>056-031100-
NEBRASKA PANHANDLE

CITY           SKY/WX    TMP DP  RH WIND       PRES   REMARKS
SCOTTSBLUFF    CLEAR     39  34  82 NW8       30.10R WCI  33
ALLIANCE       CLEAR     34  33  96 CALM      30.07R
CHADRON        CLEAR     37  34  89 CALM      30.08S
KIMBALL        CLEAR     38  33  82 NW10      30.10R WCI  31
SIDNEY         CLEAR     39  34  82 NW14      30.07R WCI  31
$$

NEZ057>060-069>072-079>082-031100-
SOUTHWEST NEBRASKA

CITY           SKY/WX    TMP DP  RH WIND       PRES   REMARKS
NORTH PLATTE   CLEAR     40  39  97 CALM      30.04R
IMPERIAL       CLOUDY    44  42  93 NE6       30.05S
LEXINGTON      PTCLDY    41  38  89 CALM      30.04S
MCCOOK         MOCLDY    41  40  96 NW7       30.04R
$$

NEZ005>010-023>029-035>040-094-031100-
NORTH CENTRAL NEBRASKA

CITY           SKY/WX    TMP DP  RH WIND       PRES   REMARKS
VALENTINE      CLEAR     36  35  96 W7        30.06S WCI  30
AINSWORTH      CLEAR     38  37  99 W6        30.05S WCI  33
BROKEN BOW     CLEAR     37  36  96 N5        30.04R WCI  33
ORD            CLEAR     38  36  92 CALM      30.04R
$$

NEZ041-046>049-061>064-073>077-083>087-031100-
SOUTH CENTRAL NEBRASKA

CITY           SKY/WX    TMP DP  RH WIND       PRES   REMARKS
GRAND ISLAND   CLEAR     43  36  76 SE5       30.05R
AURORA         CLEAR     42  38  86 S3        30.05S
HASTINGS       CLEAR     46  36  68 S5        30.03F
KEARNEY *      CLOUDY    46  39  76 S5        30.03F
YORK           CLEAR     45  37  76 S5        30.05S
$$

NEZ011>018-030>034-042>045-031100-
NORTHEAST NEBRASKA

CITY           SKY/WX    TMP DP  RH WIND       PRES   REMARKS
NORFOLK        PTCLDY    40  37  89 CALM      30.04R
ALBION         PTCLDY    38  35  91 N3        30.05S
BLAIR          CLEAR     46  40  80 CALM      30.04S
COLUMBUS *     CLEAR     37  30  75 CALM      30.05S
FREMONT        CLEAR     43  43 100 CALM      30.04F FOG
TEKAMAH        CLEAR     44  41  89 CALM      30.04S
$$

NEZ050>053-065>068-078-088>093-031100-
SOUTHEAST NEBRASKA

CITY           SKY/WX    TMP DP  RH WIND       PRES   REMARKS
LINCOLN        PTCLDY    42  40  92 CALM      30.06F
OMAHA EPPLEY   CLEAR     45  42  89 SE3       30.05S
BEATRICE       CLEAR     41  40  95 CALM      30.06S
FALLS CITY     MOCLDY    44  41  89 CALM      30.06S
$$

NEZ044-045-051>053-067-031100-
OMAHA AREA

CITY           SKY/WX    TMP DP  RH WIND       PRES   REMARKS
OMAHA EPPLEY   CLEAR     45  42  89 SE3       30.05S
BLAIR          CLEAR     46  40  80 CALM      30.04S
FREMONT        CLEAR     43  43 100 CALM      30.04F FOG
$$



USA.gov is the U.S. government's official web portal to all federal, state and local government web resources and services.